This demonstration page uses our WeatherBlox Daily Observations layout. Learn more.

Left ArrowRight Arrow

44.8408, -93.29828

Hourly Observations for July 16, 2019

Temp ( °F °C ) Dew Point ( °F °C ) Humidity (%) Winds ( mph kmh ) Pressure ( in mb ) Visibility ( mi km ) Precip ( " mm )
12:53 am 00:53 Mostly Cloudy 71 21.7 67 19.4 87 87 SSE 9 15 29.82 1010 10 16 0.00 0.00
1:53 am 01:53 Mostly Cloudy 72 22.2 68 20 87 87 S 5 7 29.82 1010 10 16 0.00 0.00
2:53 am 02:53 Mostly Cloudy 72 22.2 66 18.9 82 82 S 3 6 29.82 1010 10 16 0.00 0.00
3:53 am 03:53 Partly Cloudy 71 21.7 65 18.3 81 81 SSW 6 9 29.82 1010 10 16 0.00 0.00
4:53 am 04:53 Mostly Cloudy 71 21.7 65 18.3 81 81 Calm 29.83 1010 10 16 0.00 0.00
5:53 am 05:53 Mostly Cloudy 72 22.2 64 17.8 76 76 WSW 6 9 29.83 1010 10 16 0.00 0.00
6:53 am 06:53 Mostly Cloudy 72 22.2 64 17.8 76 76 W 3 6 29.84 1011 10 16 0.00 0.00
7:53 am 07:53 Mostly Cloudy 73 22.8 66 18.9 79 79 WSW 8 13 29.85 1011 10 16 0.00 0.00
8:53 am 08:53 Mostly Cloudy 76 24.4 67 19.4 74 74 WSW 6 9 29.86 1011 10 16 0.00 0.00
9:53 am 09:53 Mostly Cloudy 79 26.1 68 20 69 69 WSW 6 9 29.86 1011 10 16 0.00 0.00
10:53 am 10:53 Mostly Cloudy 81 27.2 70 21.1 69 69 Calm 29.86 1011 10 16 0.00 0.00
11:53 am 11:53 Mostly Cloudy 82 27.8 70 21.1 67 67 NE 5 7 29.86 1011 10 16 0.00 0.00
12:53 pm 12:53 Mostly Cloudy 84 28.9 72 22.2 67 67 SSW 3 6 29.86 1011 10 16 0.00 0.00
1:53 pm 13:53 Mostly Cloudy 84 28.9 71 21.7 65 65 Calm 29.85 1011 10 16 0.00 0.00
2:53 pm 14:53 Mostly Cloudy 85 29.4 71 21.7 63 63 VRB 5 7 29.85 1011 10 16 0.00 0.00
3:38 pm 15:38 Cloudy with Thunderstorms 84 28.9 72 22.2 67 67 SSW 12 19 29.85 1011 10 16 0.00 0.00
3:53 pm 15:53 Cloudy with Thunderstorms 84 28.9 73 22.8 70 70 SW 13 20 29.83 1010 10 16 0.00 0.00
4:32 pm 16:32 Cloudy with Thunderstorms 76 24.4 63 17.2 64 64 N 15 24 29.85 1011 10 16 0.00 0.00
4:35 pm 16:35 Cloudy with Thunderstorms 76 24.4 65 18.3 69 69 NNW 13 20 29.85 1011 10 16 0.00 0.00
4:53 pm 16:53 Mostly Cloudy with Nearby Thunderstorms 78 25.6 66 18.9 67 67 NNW 7 11 29.85 1011 10 16 0.01 0.25
5:05 pm 17:05 Mostly Cloudy 78 25.6 66 18.9 67 67 N 9 15 29.85 1011 10 16 0.00 0.00
5:53 pm 17:53 Mostly Cloudy 80 26.7 67 19.4 64 64 NE 7 11 29.84 1011 10 16 0.00 0.00
6:53 pm 18:53 Partly Cloudy 81 27.2 68 20 65 65 undefined N/A 29.85 1011 10 16 0.00 0.00
7:53 pm 19:53 Mostly Sunny 81 27.2 68 20 65 65 SE 6 9 29.85 1011 10 16 0.00 0.00
8:53 pm 20:53 Mostly Sunny 79 26.1 71 21.7 77 77 SSE 6 9 29.86 1011 10 16 0.00 0.00
9:53 pm 21:53 Mostly Clear 78 25.6 71 21.7 79 79 SSE 6 9 29.88 1012 10 16 0.00 0.00
10:53 pm 22:53 Mostly Clear 78 25.6 70 21.1 76 76 S 5 7 29.87 1012 10 16 0.00 0.00
11:53 pm 23:53 Mostly Clear 77 25 68 20 74 74 W 3 6 29.88 1012 10 16 0.00 0.00

Powered by AerisWeather